Torna al catalogo

STARLINK-32338

AttivoComunicazioniVLEO
NORAD 61519·PAYLOAD·🇺🇸 United States

Lanciato Oct 15, 2024 da Cape Canaveral Space Force Station

Loading…

Prossimi Passaggi (prossime 24 ore)

TLE

AggiornatoSource: CelesTrak SupGP

Epoca: Sep 14, 2026, 20:51 UTC

1 61519C 24183L   26257.86923611 -.00014779  00000+0 -43679-3 0  2576
2 61519  53.1592 333.9234 0001274  81.4984 306.7941 15.34387424    16

Traccia STARLINK-32338 in tempo reale con AllMySat

Download on the App Store